Weather History for Banff, AB

Change the Weather History Date:

Monday, March 31, 2014

  Actual Average Record
Temperature  
Mean Temperature 21 °F -  
Max Temperature 37 °F - - ()
Min Temperature 5 °F - - ()
Degree Days  
Heating Degree Days 44    
Moisture  
Dew Point 12 °F    
Average Humidity 75    
Maximum Humidity 95    
Minimum Humidity 44    
Precipitation  
Precipitation 0.09 in - - ()
Sea Level Pressure  
Sea Level Pressure 30.08 in    
Wind  
Wind Speed 2 mph ()    
Max Wind Speed 5 mph    
Max Gust Speed -    
T = Trace of Precipitation, MM = Missing Value Source: Averaged Metar Reports

Daily Weather History Graph

Daily Weather History Graph

Search for Another Location

Airport:

Trip Planner

Search our weather history database for the weather conditions in past years. The results will help you decide how hot, cold, wet, or windy it might be!

Date:

Astronomy

Mar. 31, 2014 Rise Set
Actual Time 7:19 AM MDT 8:13 PM MDT
Civil Twilight 6:46 AM MDT 8:47 PM MDT
Nautical Twilight 6:05 AM MDT 9:28 PM MDT
Astronomical Twilight 5:22 AM MDT 10:11 PM MDT
Moon 7:39 AM MDT (3/31) 9:48 PM MDT (3/31)
Length of Visible Light 14h 01m
Length of Day
12h 54m
New Moon, 1% of the Moon is Illuminated
Mar 31
New Moon
Apr 7
First Quarter
Apr 15
Full
Apr 22
Last Quarter
Apr 29
New

Hourly Weather History & Observations

Time (MDT) Temp. Windchill Dew Point Humidity Pressure Visibility Wind Dir Wind Speed Gust Speed Precip Events Conditions
12:00 AM 10.9 °F 2.9 °F 7.2 °F 85% 30.14 in - East 4.6 mph - N/A   Unknown
1:00 AM 9.7 °F 1.4 °F 6.1 °F 85% 30.14 in - East 4.6 mph - N/A   Unknown
2:00 AM 8.2 °F 1.6 °F 5.5 °F 89% 30.15 in - ENE 3.5 mph - 0.01 in   Unknown
3:00 AM 8.8 °F 2.2 °F 7.7 °F 95% 30.14 in - ENE 3.5 mph - N/A   Unknown
4:00 AM 8.6 °F - 6.1 °F 89% 30.14 in - NE 2.3 mph - 0.02 in   Unknown
5:00 AM 8.4 °F - 5.5 °F 88% 30.15 in - East 1.2 mph - 0.03 in   Unknown
6:00 AM 5.9 °F - 3.2 °F 89% 30.16 in - Calm Calm - N/A   Unknown
7:00 AM 7.0 °F - 5.0 °F 92% 30.16 in - NE 1.2 mph - N/A   Unknown
8:00 AM 7.9 °F - 5.7 °F 91% 30.17 in - Calm Calm - N/A   Unknown
9:00 AM 9.9 °F - 5.4 °F 82% 30.17 in - North 1.2 mph - 0.01 in   Unknown
10:00 AM 13.8 °F - 5.5 °F 70% 30.15 in - East 1.2 mph - 0.01 in   Unknown
11:00 AM 17.2 °F - 9.3 °F 71% 30.13 in - West 2.3 mph - N/A   Unknown
12:00 PM 23.0 °F - 11.3 °F 61% 30.09 in - Calm Calm - N/A   Unknown
1:00 PM 27.5 °F - 13.5 °F 56% 30.06 in - NE 1.2 mph - N/A   Unknown
2:00 PM 31.6 °F 28.3 °F 12.6 °F 45% 30.03 in - WSW 3.5 mph - N/A   Unknown
3:00 PM 35.2 °F 32.4 °F 16.3 °F 46% 29.98 in - North 3.5 mph - N/A   Unknown
4:00 PM 37.8 °F - 17.8 °F 44% 29.96 in - NW 2.3 mph - N/A   Unknown
5:00 PM 37.2 °F 33.6 °F 20.1 °F 50% 29.95 in - WNW 4.6 mph - N/A   Unknown
6:00 PM 31.8 °F - 22.1 °F 67% 29.99 in - SE 2.3 mph - N/A   Unknown
7:00 PM 29.8 °F 26.3 °F 21.7 °F 72% 30.00 in - NE 3.5 mph - N/A   Unknown
8:00 PM 27.7 °F - 21.0 °F 76% 30.01 in - ENE 1.2 mph - N/A   Unknown
9:00 PM 25.2 °F 20.9 °F 19.0 °F 78% 30.02 in - ENE 3.5 mph - N/A   Unknown
10:00 PM 21.9 °F 15.7 °F 18.9 °F 88% 30.03 in - East 4.6 mph - 0.01 in   Unknown
11:00 PM 20.8 °F - 18.1 °F 89% 30.02 in - ESE 2.3 mph - N/A   Unknown